K4FB Weather Reports


time (UTC)temp
F
wind
direction
speed
knots
gust
knots
rain 1hr
in
rain 24hr
in
rain mn
in
humidity
%
barometer
mb
20200531075003 69 0 0.0 0.0 0.00 0.00 0.00 90 1014.5
20200531055003 70 0 0.0 0.0 0.00 0.00 0.00 87 1015.2
20200531052003 70 0 0.0 0.0 0.00 0.00 0.00 85 1015.7
20200531044003 71 0 0.0 0.0 0.00 0.00 0.00 83 1016.3
20200531034003 72 102 0.9 3.5 0.00 0.00 0.00 82 1016.4
20200531031003 73 134 0.9 3.5 0.00 0.00 0.00 82 1016.6
20200531014003 76 129 0.9 3.5 0.00 0.00 0.00 82 1016.7
20200531000004 80 158 1.7 7.0 0.00 0.00 0.00 73 1014.6
20200530231003 81 163 3.5 7.8 0.00 0.00 0.00 71 1013.6
20200530225003 85 127 2.6 7.0 0.00 0.00 0.00 70 1013.4
20200530223004 88 175 0.9 3.5 0.00 0.00 0.00 66 1012.5
20200530191003 93 346 0.9 1.7 0.00 0.00 0.00 58 1014.0
20200530190003 94 338 0.9 4.3 0.00 0.00 0.00 56 1014.1
20200530174003 90 318 0.9 3.5 0.00 0.00 0.00 65 1015.0
20200530163004 89 0 0.0 1.7 0.00 0.00 0.00 67 1015.7
20200530145003 89 167 2.6 6.1 0.00 0.00 0.00 70 1016.2
20200530142003 86 173 3.5 7.0 0.00 0.00 0.00 71 1016.1
20200530114004 72 103 0.9 2.6 0.00 0.00 0.00 94 1016.5
20200530112003 71 0 0.0 0.9 0.00 0.00 0.00 94 1016.1
20200530102004 71 0 0.0 0.0 0.00 0.00 0.00 93 1015.8
20200530100003 71 0 0.0 0.0 0.00 0.00 0.00 93 1015.7
20200530094004 71 0 0.0 0.0 0.00 0.00 0.00 92 1015.7
20200530091003 71 0 0.0 0.0 0.00 0.00 0.00 91 1015.5